Dewpoint
45 41 37 39 39 35 34 35 34 34 37 35 33 34 35 36 36 36 36 36 35 35 41 49 54 56 57 58 58 60 61 61 60 60 59 59 58 58 58 58 58 58 58 58
42 37 38 40 40 38 36 34 34 35 37 36 36 35 36 36 36 36 36 36 36 36 37 39 48 54 56 57 58 58 59 61 60 60 59 59 58 58 58 57 57 57 58 58
37 37 40 40 39 39 38 37 36 33 36 37 34 31 30 33 36 36 36 36 36 36 36 36 37 48 54 56 57 58 58 59 61 60 59 57 56 55 56 56 56 56 57 57
39 40 40 39 38 39 36 38 38 37 35 31 35 26 29 30 30 32 33 35 35 35 36 36 36 36 48 53 56 57 58 58 59 60 58 57 57 56 56 56 56 56 56 56
36 38 38 38 38 39 36 38 37 37 36 35 33 32 29 32 30 31 31 32 34 35 36 36 36 36 36 47 53 56 57 58 58 59 60 58 57 57 57 56 55 56 56 56
37 40 38 37 38 39 38 36 36 36 35 28 30 30 27 25 25 28 29 31 32 34 36 37 37 37 36 38 50 54 56 56 58 58 59 59 58 58 57 56 55 55 55 55
37 38 40 39 37 39 37 33 28 26 26 24 26 29 27 27 29 30 29 31 33 35 34 35 36 38 38 37 44 52 55 55 57 57 58 59 59 58 58 57 55 55 54 54
31 29 38 40 36 34 36 31 26 18 20 22 26 22 22 28 28 29 30 30 31 31 34 36 37 38 39 40 40 50 53 55 56 57 57 58 59 59 58 58 57 56 55 55
30 28 38 39 39 35 35 31 31 28 25 25 24 26 26 28 29 31 30 32 32 34 35 34 36 38 39 40 41 44 51 53 55 56 57 57 58 58 58 59 59 58 57 57
30 28 35 37 37 38 36 37 31 32 22 20 21 22 22 23 21 23 27 29 32 31 28 29 32 35 38 39 40 42 46 50 54 56 56 57 57 58 59 59 58 58 58 57
32 27 33 36 34 32 34 33 35 34 31 22 21 19 24 22 23 25 27 29 25 23 23 24 24 27 30 29 31 37 44 50 53 55 56 56 57 58 58 58 58 58 58 57
35 30 28 31 37 35 35 33 35 29 27 30 29 25 25 24 25 26 24 23 22 23 22 22 25 27 27 28 28 32 41 48 53 54 55 55 56 57 57 57 57 57 57 57
36 31 25 26 27 35 34 35 34 34 32 27 24 20 23 25 26 28 28 29 28 24 23 24 24 25 27 27 28 28 38 48 52 53 53 53 55 55 56 56 57 57 56 56
34 31 24 18 18 26 29 32 34 34 30 26 26 22 22 25 30 30 30 31 31 31 27 26 24 25 27 29 30 31 33 34 38 48 53 52 52 52 53 54 54 55 55 55
32 27 28 26 27 28 27 28 32 32 30 24 20 20 21 23 29 30 31 31 31 31 31 29 26 26 26 27 30 31 32 35 36 35 36 38 40 42 44 47 48 49 50 51
35 29 30 26 29 30 29 29 30 31 32 31 30 28 28 28 31 32 32 32 32 31 31 28 27 26 27 27 28 30 31 33 37 37 38 39 41 42 43 44 44 44 45 45
33 30 28 23 29 29 23 26 27 28 29 29 26 25 26 29 30 31 32 31 31 31 31 29 28 27 28 27 28 31 35 37 37 37 38 39 40 41 41 42 42 42 42 41
32 29 25 21 21 16 17 24 27 25 26 28 29 29 29 29 30 30 31 31 31 32 33 33 28 27 28 28 33 36 37 37 37 37 38 38 39 40 40 40 40 39 39 39
30 26 21 17 16 13 13 13 20 23 14 26 27 28 28 29 29 28 29 30 32 33 35 36 35 28 30 32 35 36 36 36 36 37 37 37 37 38 39 39 39 38 37 37
28 23 15 14 9 2 4 8 15 19 7 11 18 23 26 28 25 21 31 32 32 33 34 35 34 31 32 34 35 35 34 35 35 35 36 37 38 38 38 37 36 34 34 34
22 22 15 12 10 10 13 12 25 7 4 25 28 27 26 27 29 29 30 31 32 34 33 33 33 32 33 34 34 33 34 34 34 34 35 35 36 37 36 34 33 33 33 32
18 17 17 15 12 7 25 16 12 19 24 23 22 23 23 23 24 27 29 30 32 33 33 32 31 31 31 32 33 32 32 31 32 33 33 34 34 34 33 33 33 33 32 32
16 16 17 15 12 26 25 24 16 13 16 17 16 17 18 19 21 25 26 30 31 31 30 30 30 28 28 29 31 30 29 30 31 32 33 32 32 32 32 32 32 32 31 31
25 22 24 24 23 23 21 16 9 10 12 12 13 14 16 18 19 23 25 29 30 27 26 26 26 25 24 24 25 25 27 29 31 31 30 30 30 30 30 30 30 31 30 29
16 17 19 23 21 17 14 8 5 8 9 9 10 12 13 17 17 20 24 26 26 24 22 22 22 21 19 19 19 20 24 26 27 27 27 27 27 26 26 26 27 28 28 28
6 6 17 19 3 3 6 3 3 7 6 7 8 10 12 15 15 17 21 20 20 19 18 18 17 16 15 15 15 15 19 24 24 24 24 23 24 24 26 28 28 29 29 28
Wind_Speed
10 14 28 22 11 7 7 6 4 3 3 4 9 16 24 20 16 19 20 22 21 23 23 17 15 18 19 17 20 23 22 23 20 18 16 15 17 15 14 15 17 18 17 16
9 28 15 13 12 8 6 4 3 5 2 2 13 21 27 20 22 21 24 23 25 22 22 22 17 18 21 26 27 21 26 24 23 20 19 11 13 15 18 18 19 20 18 18
20 6 17 14 10 14 9 15 6 10 10 5 10 19 23 14 16 19 22 24 22 24 23 24 22 22 23 24 24 25 25 22 22 22 15 8 6 3 11 13 17 18 20 20
10 3 19 14 15 14 14 7 11 11 6 10 3 15 20 13 19 17 21 20 23 25 22 25 24 21 23 27 24 26 27 27 24 23 22 25 24 24 20 19 19 19 21 21
6 11 12 11 7 12 5 10 10 8 8 8 12 10 16 4 12 18 20 23 23 25 22 24 25 26 25 23 23 26 26 25 26 25 28 25 26 24 19 16 18 21 19 22
6 1 11 11 7 15 11 8 4 3 2 10 14 17 12 12 8 7 18 22 23 20 22 22 23 20 22 20 20 21 23 26 26 27 30 30 30 27 20 19 20 18 17 17
8 6 4 10 10 5 10 9 4 5 7 16 1 12 22 17 12 13 17 20 22 17 18 21 22 20 20 22 23 22 23 26 26 29 29 30 30 27 28 24 22 20 18 17
17 11 15 8 9 11 16 13 7 6 9 7 2 14 11 23 23 19 20 25 23 24 17 16 21 23 22 21 22 21 22 26 25 26 29 29 31 26 26 25 21 23 22 21
10 6 3 7 6 10 5 18 12 5 1 8 7 15 17 18 24 19 26 21 24 17 19 20 20 20 22 21 22 22 22 23 23 26 25 25 25 27 24 25 22 20 20 18
8 6 3 6 5 3 5 7 6 8 7 11 10 14 24 9 25 26 17 19 13 13 21 23 21 21 19 20 18 17 19 23 20 21 21 23 23 23 24 19 21 22 19 17
9 6 5 10 8 17 4 6 5 3 5 8 8 15 9 16 18 16 12 7 12 18 20 21 20 18 15 11 11 13 15 18 19 18 18 19 19 21 20 20 18 20 16 15
4 5 8 4 4 9 12 14 11 6 5 5 4 22 8 14 8 7 12 16 8 11 15 13 15 13 15 13 11 10 9 13 15 16 18 20 18 18 19 21 21 16 18 16
16 7 10 4 2 0 10 13 12 8 4 18 9 20 6 7 10 16 25 27 21 11 14 15 12 11 13 11 9 9 6 5 7 9 13 14 16 17 18 18 17 16 18 17
19 7 8 18 6 9 10 15 23 21 11 15 32 47 23 25 27 32 33 34 35 26 21 20 14 10 7 9 4 3 3 4 1 2 5 7 9 11 12 12 12 13 13 15
12 13 6 3 6 4 6 10 22 26 31 17 41 30 12 11 14 16 17 24 30 31 24 26 22 15 11 10 7 3 2 2 2 4 4 5 5 4 4 3 3 3 3 3
4 6 7 5 6 6 14 16 16 20 19 26 24 47 5 10 12 18 23 26 27 29 26 26 26 20 19 15 13 8 5 2 2 3 3 3 6 7 7 7 6 6 5 4
13 9 8 6 5 5 15 23 21 17 21 25 32 55 26 20 26 30 31 29 28 28 31 28 29 26 24 18 14 13 8 5 5 6 5 5 5 7 8 8 9 9 8 9
14 11 6 5 7 12 10 3 18 26 24 28 37 37 29 29 33 41 23 30 34 33 38 33 23 25 24 17 15 10 8 8 8 8 8 8 8 8 8 8 9 9 9 10
11 11 6 8 15 12 18 11 9 14 28 28 31 26 23 26 28 32 24 30 33 36 36 35 28 24 17 20 16 13 11 10 9 8 8 8 10 12 12 11 10 8 9 9
6 5 8 6 6 11 3 12 19 3 38 12 17 19 21 17 26 22 29 31 29 30 28 29 25 16 19 19 17 15 12 10 10 10 9 9 11 13 13 12 10 6 7 10
9 5 17 10 9 15 14 13 9 11 21 14 15 14 18 12 18 31 36 40 35 28 25 10 12 18 17 15 16 14 12 11 9 9 9 10 10 11 12 10 11 12 13 11
15 16 9 7 7 21 2 4 13 7 5 11 18 22 27 25 31 30 29 33 36 28 11 3 7 7 5 8 12 12 12 9 10 11 11 10 11 12 12 15 10 12 14 13
9 9 12 17 15 4 6 8 9 11 10 10 16 22 24 30 31 32 32 34 28 19 11 2 8 9 8 7 6 10 7 9 11 12 12 13 11 11 11 13 12 12 11 11
3 3 5 2 6 3 9 13 16 19 16 19 17 20 23 28 28 32 32 28 21 11 8 6 3 8 8 8 9 6 4 7 10 11 13 13 13 10 10 9 9 10 11 11
2 3 3 9 7 9 11 13 22 23 20 23 22 20 22 26 27 24 26 21 13 8 6 7 6 7 9 8 8 6 4 8 12 11 10 12 11 12 11 10 10 12 8 8
6 1 5 9 6 7 12 18 28 23 26 26 29 32 24 21 26 23 21 12 10 5 3 9 9 9 9 9 10 10 8 6 11 13 10 10 12 10 9 13 16 18 17 17
Wind_Direction
173 185 206 203 191 124 154 190 216 247 299 288 265 269 275 277 274 268 261 264 262 255 259 259 234 220 216 216 216 209 202 208 197 202 200 216 215 213 214 214 214 214 215 210
156 210 197 165 167 171 145 167 240 286 355 295 295 286 283 271 266 253 255 256 257 253 255 258 243 224 213 217 217 220 214 206 201 202 204 206 199 216 213 209 210 213 211 209
188 203 156 162 174 191 206 229 236 268 315 301 307 287 272 262 252 256 250 248 253 251 251 255 250 230 223 218 214 212 220 215 208 206 197 181 182 175 198 209 215 212 210 212
198 134 163 176 194 183 227 201 248 273 288 273 11 292 277 261 262 261 263 251 251 254 246 250 249 244 226 225 215 211 212 212 209 201 201 206 214 220 221 216 211 208 208 212
199 170 152 175 182 179 211 162 199 224 240 292 247 263 266 298 259 262 267 265 256 251 247 249 248 246 240 228 215 214 212 211 212 205 210 212 218 226 228 217 210 208 207 211
168 140 184 178 158 173 149 121 114 109 154 259 237 212 263 260 249 254 260 265 269 262 257 253 252 249 246 237 220 214 211 213 209 206 211 213 219 221 217 215 214 212 212 209
173 166 144 141 163 144 162 171 227 216 204 243 29 211 245 270 254 254 260 267 268 266 275 269 274 268 252 244 230 218 212 217 210 208 211 215 219 219 219 216 215 212 210 213
169 188 169 176 178 175 181 188 194 222 217 269 303 249 263 232 257 257 261 262 273 275 286 281 272 268 260 248 239 225 215 219 211 210 213 214 219 222 222 221 217 216 216 217
167 177 62 160 131 154 182 210 218 285 254 282 234 271 285 262 263 266 260 263 271 294 299 292 287 274 265 251 241 229 222 223 215 213 214 219 220 223 224 225 221 219 222 218
172 150 180 157 105 90 157 149 172 198 229 238 255 262 242 278 288 279 278 274 294 314 308 302 304 296 280 267 256 239 232 231 223 215 214 215 217 222 227 227 223 223 225 212
142 122 131 141 193 186 158 196 199 217 202 230 279 259 205 224 252 294 309 327 332 325 323 323 325 322 301 295 280 259 247 237 228 213 206 207 212 210 214 225 228 225 222 204
132 114 154 166 79 195 182 187 186 201 195 216 281 269 222 241 276 348 336 314 314 312 306 327 324 334 321 306 301 286 266 247 240 222 210 209 206 207 211 215 218 214 218 208
155 166 149 152 178 18 206 210 206 219 166 237 241 257 37 65 13 338 327 321 316 298 333 335 331 343 335 321 308 312 325 273 256 232 222 219 212 207 213 220 220 213 214 217
159 155 177 207 203 153 190 203 206 210 218 235 230 262 258 296 312 310 312 314 312 308 312 313 308 304 311 306 314 328 7 28 34 232 225 226 228 227 224 221 225 228 223 223
162 202 173 200 115 122 200 204 203 208 224 224 255 278 273 278 289 295 297 294 295 298 295 295 287 270 260 260 261 231 173 95 92 126 147 165 162 155 145 138 124 118 113 134
172 135 154 231 235 248 249 237 232 230 241 252 270 272 347 306 304 291 279 279 283 286 287 279 279 261 252 244 233 221 217 178 144 136 130 122 127 127 130 128 129 120 110 89
160 142 147 216 211 208 267 238 232 234 233 238 246 255 284 280 281 276 275 281 283 281 274 265 261 260 248 238 224 221 205 164 158 154 143 138 141 134 136 136 130 127 124 125
156 151 156 158 141 231 248 234 214 217 236 235 246 260 266 274 272 272 288 282 275 269 269 270 252 250 243 218 203 193 185 174 168 157 150 151 154 148 135 127 128 124 126 130
147 154 152 181 205 283 285 248 202 201 254 238 251 261 259 260 276 282 276 274 272 273 271 269 265 246 222 200 194 187 174 162 157 165 151 163 162 158 146 145 143 135 137 133
143 95 180 150 201 248 253 214 208 123 264 243 274 324 349 326 284 297 334 327 318 294 274 269 255 221 202 190 176 180 177 167 177 168 164 171 162 159 149 145 138 127 125 118
162 183 204 182 233 271 244 251 151 209 266 352 349 344 344 315 290 318 314 311 310 292 288 282 217 208 195 167 164 174 168 179 173 151 155 163 153 147 136 130 129 129 125 120
175 175 188 161 219 269 347 235 222 297 353 0 342 332 323 310 307 312 313 309 310 301 284 210 171 137 105 147 157 166 172 159 150 144 152 143 134 131 129 128 130 132 133 127
203 198 183 190 215 106 40 105 72 16 334 347 332 325 320 312 315 315 316 314 313 312 303 342 149 126 75 62 120 151 156 151 144 149 141 125 118 121 128 130 135 129 126 126
214 31 226 209 237 156 109 103 34 0 340 332 328 320 316 309 315 314 317 316 315 326 320 5 59 109 88 58 69 86 132 143 148 146 132 121 121 113 113 115 123 123 125 125
231 338 215 256 274 350 121 44 360 340 335 329 324 317 311 309 310 312 312 312 314 325 349 50 60 74 64 53 53 39 84 144 146 137 128 123 122 122 111 104 114 102 83 115
12 13 222 252 24 305 285 333 333 337 333 331 324 320 318 313 310 314 306 314 314 324 25 74 68 68 53 52 44 25 13 105 125 123 120 122 127 120 113 115 100 84 89 88